EDT,Max TemperatureF,Mean TemperatureF,Min TemperatureF,Max Dew PointF,MeanDew PointF,Min DewpointF,Max Humidity, Mean Humidity, Min Humidity, Max Sea Level PressureIn, Mean Sea Level PressureIn, Min Sea Level PressureIn, Max VisibilityMiles, Mean VisibilityMiles, Min VisibilityMiles, Max Wind SpeedMPH, Mean Wind SpeedMPH, Max Gust SpeedMPH,PrecipitationIn, CloudCover, Events, WindDirDegrees
2012-10-1,68,60,55,54,51,48,87,68,57,29.99,29.86,29.80,,,,15,8,24,0.00,,,246
2012-10-2,73,64,57,68,60,54,97,84,57,30.07,30.03,29.98,,,,8,2,,0.04,,,132
2012-10-3,69,66,64,68,65,64,100,96,90,30.14,30.07,30.01,,,,7,4,,0.08,,,46
2012-10-4,69,66,63,64,63,62,100,93,81,30.15,30.11,30.05,,,,6,3,,0.12,,,41
2012-10-5,75,69,63,65,62,56,97,85,51,30.07,30.01,29.96,,,,7,3,,0.00,,,255
2012-10-6,73,66,57,65,60,45,93,78,60,29.98,29.88,29.78,,,,14,7,22,0.00,,,227
2012-10-7,57,54,50,49,41,36,89,63,49,30.11,30.06,29.99,,,,14,8,21,0.14,,,329
2012-10-8,55,52,50,46,43,41,80,71,59,30.31,30.23,30.10,,,,8,5,,0.00,,,343
2012-10-9,59,57,55,54,51,46,90,81,72,30.27,30.18,30.11,,,,15,8,23,0.02,,,54
2012-10-10,68,62,57,62,56,48,97,84,60,30.10,29.92,29.78,,,,14,7,23,0.17,,,145
2012-10-11,57,55,53,44,39,36,67,54,44,30.19,30.10,29.94,,,,15,11,26,0.00,,,269
2012-10-12,57,54,51,44,38,27,68,55,39,30.30,30.15,30.06,,,,18,10,29,0.00,,,288
2012-10-13,54,47,42,39,28,22,61,49,33,30.51,30.43,30.34,,,,12,8,21,0.00,,,302
2012-10-14,64,59,54,60,53,42,87,74,60,30.33,30.15,30.02,,,,15,10,30,0.00,,,211
2012-10-15,66,65,63,63,61,60,93,87,79,29.95,29.80,29.65,,,,10,9,22,0.06,,,195
2012-10-16,61,56,51,59,43,37,93,62,47,29.91,29.75,29.61,,,,15,10,28,0.05,,,314
2012-10-17,55,52,46,43,38,36,83,63,49,30.02,29.97,29.91,,,,12,7,18,0.00,,,332
2012-10-18,64,52,41,58,48,38,93,78,58,30.10,30.07,30.03,,,,7,2,,0.00,,,107
2012-10-19,68,65,62,64,62,58,93,90,86,30.02,29.88,29.73,,,,13,8,25,0.10,,,124
2012-10-20,69,65,60,64,59,41,97,86,49,29.82,29.71,29.68,,,,10,6,24,0.19,,,209
2012-10-21,63,59,55,47,44,41,64,56,48,29.98,29.92,29.84,,,,14,9,23,0.00,,,267
2012-10-22,64,60,57,51,45,41,75,58,45,30.05,30.01,29.97,,,,15,10,25,0.00,,,281
2012-10-23,64,60,57,53,46,41,84,60,46,30.14,30.10,30.06,,,,8,5,,0.01,,,297
2012-10-24,57,56,55,54,50,46,96,83,69,30.22,30.16,30.13,,,,8,5,,0.02,,,37
2012-10-25,64,56,50,48,47,46,86,74,60,30.29,30.27,30.23,,,,5,1,,0.00,,,70
2012-10-26,63,56,50,55,50,47,89,78,60,30.26,30.21,30.14,,,,6,1,,0.00,,,145
2012-10-27,63,60,57,54,50,44,87,71,58,30.08,30.01,29.95,,,,13,4,22,0.00,,,53
2012-10-28,61,58,55,52,51,50,87,81,75,29.91,29.79,29.65,,,,18,14,36,0.00,,,45
2012-10-29,63,59,55,60,55,51,93,89,84,29.62,29.33,28.86,,,,29,19,56,0.05,,,42
2012-10-30,,,,,,,,,,,,,,,,,,,,,,
2012-10-31,,,,,,,,,,,,,,,,,,,,,,